Location: Marcé
(47.5801°N, 0.3280°W)
Time: 05:13:15
(UTC+01:00)

ISS - Pass Details

Date: 28 October 2021
Orbit: 417 x 422 km, 51.6° (Epoch: 04 December)

Event Time Altitude Azimuth Distance (km) Brightness Sun altitude
Exits shadow 07:09:21 37° 282° (WNW) 664 -3.3 -15.7°
Maximum altitude 07:10:24 58° 343° (NNW) 494 -3.6 -15.5°
Drops below altitude 10° 07:13:44 10° 64° (ENE) 1,501 0.0 -15.0°
Sets 07:15:51 0° 68° (ENE) 2,365 1.3 -14.6°
